Weather History for KMWO - October, 2012

Change the Weather History Date:

Monday, October 1, 2012

  Actual Average (KDAY) Record (KDAY)
Temperature  
Mean Temperature 58 °F 59 °F  
Max Temperature 67 °F 70 °F 93 °F (1897)
Min Temperature 49 °F 49 °F 26 °F (1899)
Degree Days  
Heating Degree Days 7 7  
Month to date heating degree days 7  
Since 1 July heating degree days 97  
Cooling Degree Days 0 1  
Month to date cooling degree days 1  
Year to date cooling degree days 882  
Growing Degree Days 8 (Base 50)    
Moisture  
Dew Point 52 °F    
Average Humidity 86    
Maximum Humidity 100    
Minimum Humidity 63    
Precipitation  
Precipitation 0.00 in 0.09 in 3.24 in (1986)
Month to date precipitation 0.09  
Year to date precipitation 31.70  
Snow  
Snow 0.00 in 0.00 in - ()
Month to date snowfall 0.0  
Since 1 July snowfall 0.0  
Since 1 September snowfall 0.0  
Snow Depth -    
Sea Level Pressure  
Sea Level Pressure 29.83 in    
Wind  
Wind Speed 6 mph (NE)    
Max Wind Speed 13 mph    
Max Gust Speed 18 mph    
Visibility 9 miles    
Events Rain    
T = Trace of Precipitation, MM = Missing Value Source: NWS Daily Summary

Daily Weather History Graph

Daily Weather History Graph

Search for Another Location

Airport or City:

Trip Planner

Search our weather history database for the weather conditions in past years. The results will help you decide how hot, cold, wet, or windy it might be!

Date:

Astronomy

Oct. 01, 2012 Rise Set
Actual Time 7:34 AM EDT 7:19 PM EDT
Civil Twilight 7:07 AM EDT 7:46 PM EDT
Nautical Twilight 6:36 AM EDT 8:17 PM EDT
Astronomical Twilight 6:04 AM EDT 8:48 PM EDT
Moon 7:56 PM EDT 9:02 AM EDT
Length of Visible Light 12h 38m
Length of Day
11h 45m
Full, 98% of the Moon is Illuminated
Oct 1
Full
Oct 8
Last Quarter
Oct 15
New
Oct 21
First Quarter
Oct 29
Full

Hourly Weather History & Observations

Time (EDT) Temp. Dew Point Humidity Pressure Visibility Wind Dir Wind Speed Gust Speed Precip Events Conditions
12:15 AM 55.4 °F 48.2 °F 77% 29.94 in 10.0 mi NNE 5.8 mph - N/A   Clear
12:35 AM 55.4 °F 48.6 °F 78% 29.93 in 10.0 mi NNE 4.6 mph - N/A   Clear
1:35 AM 52.7 °F 47.7 °F 83% 29.93 in 10.0 mi North 3.5 mph - N/A   Clear
1:55 AM 52.7 °F 48.2 °F 85% 29.93 in 10.0 mi NNE 4.6 mph - N/A   Clear
2:15 AM 52.7 °F 49.3 °F 88% 29.93 in 10.0 mi NNE 4.6 mph - N/A   Clear
2:35 AM 52.7 °F 50.0 °F 91% 29.92 in 10.0 mi NNE 4.6 mph - N/A   Clear
2:55 AM 52.7 °F 50.2 °F 91% 29.91 in 10.0 mi NNE 4.6 mph - N/A   Clear
3:15 AM 52.7 °F 50.0 °F 91% 29.90 in 10.0 mi NNE 4.6 mph - N/A   Clear
3:35 AM 52.7 °F 50.0 °F 91% 29.90 in 10.0 mi NNE 3.5 mph - N/A   Clear
3:55 AM 52.7 °F 50.4 °F 92% 29.89 in 10.0 mi NNE 3.5 mph - N/A   Clear
4:15 AM 52.7 °F 50.5 °F 92% 29.89 in 10.0 mi Calm Calm - N/A   Clear
4:35 AM 52.7 °F 50.4 °F 92% 29.89 in 10.0 mi Calm Calm - N/A   Clear
4:55 AM 50.0 °F 48.9 °F 96% 29.89 in 10.0 mi Calm Calm - N/A   Clear
5:15 AM 50.2 °F 49.1 °F 96% 29.89 in 10.0 mi NNE 4.6 mph - N/A   Clear
5:35 AM 50.2 °F 49.1 °F 96% 29.88 in 10.0 mi NNE 6.9 mph - N/A   Clear
6:15 AM 50.2 °F 48.9 °F 95% 29.88 in 10.0 mi NNE 4.6 mph - N/A   Clear
6:35 AM 50.2 °F 48.7 °F 95% 29.88 in 10.0 mi NNE 5.8 mph - N/A   Clear
6:55 AM 49.6 °F 48.7 °F 97% 29.89 in 10.0 mi NNE 4.6 mph - N/A   Clear
7:15 AM 50.2 °F 49.1 °F 96% 29.89 in 10.0 mi NNE 4.6 mph - N/A   Clear
7:35 AM 50.2 °F 49.1 °F 96% 29.89 in 10.0 mi NNE 4.6 mph - N/A   Clear
7:55 AM 50.2 °F 49.1 °F 96% 29.90 in 10.0 mi NNE 4.6 mph - N/A   Clear
8:15 AM 50.2 °F 49.1 °F 96% 29.90 in 10.0 mi NNE 5.8 mph - N/A   Clear
8:35 AM 52.7 °F 51.4 °F 95% 29.89 in 10.0 mi NNE 6.9 mph - N/A   Clear
8:55 AM 52.7 °F 51.1 °F 94% 29.89 in 10.0 mi NNE 6.9 mph - N/A   Clear
9:15 AM 52.7 °F 50.9 °F 94% 29.89 in 10.0 mi NE 3.5 mph - N/A   Clear
9:35 AM 52.7 °F 50.0 °F 91% 29.89 in 10.0 mi NE 5.8 mph - N/A   Clear
9:55 AM 55.4 °F 51.4 °F 87% 29.88 in 10.0 mi NE 6.9 mph - N/A   Clear
10:15 AM 55.4 °F 50.5 °F 84% 29.89 in 10.0 mi ENE 5.8 mph - N/A   Clear
10:35 AM 57.7 °F 52.2 °F 82% 29.89 in 10.0 mi ENE 4.6 mph - N/A   Clear
11:15 AM 57.7 °F 50.7 °F 77% 29.89 in 10.0 mi East 8.1 mph - N/A   Clear
11:35 AM 59.0 °F 51.1 °F 75% 29.89 in 10.0 mi ENE 6.9 mph - N/A   Clear
11:55 AM 60.1 °F 51.6 °F 74% 29.87 in 10.0 mi NE 8.1 mph - N/A   Clear
12:15 PM 60.1 °F 51.6 °F 74% 29.86 in 10.0 mi ENE 10.4 mph - N/A   Clear
12:35 PM 60.1 °F 50.9 °F 72% 29.85 in 10.0 mi East 9.2 mph - N/A   Scattered Clouds
12:55 PM 60.6 °F 51.3 °F 71% 29.84 in 10.0 mi ENE 9.2 mph - N/A   Mostly Cloudy
1:15 PM 60.8 °F 51.1 °F 70% 29.84 in 10.0 mi East 8.1 mph - N/A Rain Light Rain
1:35 PM 62.6 °F 52.0 °F 68% 29.84 in 10.0 mi East 8.1 mph - N/A   Mostly Cloudy
1:55 PM 64.4 °F 52.5 °F 65% 29.83 in 10.0 mi East 10.4 mph - N/A   Mostly Cloudy
2:15 PM 65.3 °F 52.9 °F 64% 29.83 in 10.0 mi East 6.9 mph - N/A   Mostly Cloudy
2:35 PM 67.1 °F 55.0 °F 65% 29.81 in 10.0 mi ENE 12.7 mph - N/A   Mostly Cloudy
2:55 PM 66.0 °F 53.8 °F 65% 29.80 in 10.0 mi East 11.5 mph 17.3 mph N/A   Mostly Cloudy
3:15 PM 67.6 °F 55.8 °F 66% 29.80 in 10.0 mi East 11.5 mph - N/A   Mostly Cloudy
3:55 PM 66.4 °F 54.9 °F 66% 29.79 in 10.0 mi East 8.1 mph - N/A   Overcast
4:15 PM 67.6 °F 54.7 °F 63% 29.79 in 10.0 mi East 10.4 mph - N/A   Overcast
4:35 PM 65.3 °F 54.0 °F 67% 29.78 in 10.0 mi East 9.2 mph 16.1 mph N/A   Overcast
4:55 PM 67.5 °F 55.9 °F 66% 29.77 in 10.0 mi ENE 10.4 mph - N/A   Overcast
5:15 PM 65.3 °F 53.8 °F 66% 29.77 in 10.0 mi ENE 8.1 mph - N/A   Overcast
5:35 PM 65.3 °F 53.6 °F 66% 29.77 in 10.0 mi East 11.5 mph 16.1 mph N/A Rain Light Rain
5:55 PM 62.6 °F 52.5 °F 70% 29.76 in 10.0 mi ENE 11.5 mph 18.4 mph N/A Rain Light Rain
6:15 PM 62.6 °F 51.8 °F 68% 29.75 in 10.0 mi NE 9.2 mph - N/A   Overcast
6:35 PM 60.1 °F 53.4 °F 79% 29.76 in 10.0 mi East 9.2 mph - N/A Rain Light Rain
6:55 PM 57.9 °F 54.3 °F 88% 29.77 in 5.0 mi East 12.7 mph 17.3 mph N/A Rain Heavy Rain
7:15 PM 57.7 °F 56.7 °F 96% 29.75 in 5.0 mi NE 9.2 mph - N/A Rain Rain
7:35 PM 57.7 °F 57.2 °F 98% 29.75 in 7.0 mi NNE 6.9 mph - N/A Rain Rain
7:55 PM 56.5 °F 55.9 °F 98% 29.75 in 10.0 mi NE 10.4 mph - N/A Rain Rain
8:15 PM 55.8 °F 55.6 °F 99% 29.74 in 10.0 mi NE 11.5 mph - N/A   Drizzle
8:35 PM 55.6 °F 55.6 °F 100% 29.74 in 7.0 mi NE 10.4 mph - N/A Rain Rain
8:55 PM 55.4 °F 55.4 °F 100% 29.75 in 7.0 mi NNE 10.4 mph - N/A Rain Rain
9:15 PM 55.4 °F 55.4 °F 100% 29.76 in 4.0 mi North 8.1 mph - N/A Rain Heavy Rain
9:35 PM 55.4 °F 55.4 °F 100% 29.75 in 5.0 mi NE 9.2 mph 16.1 mph N/A Rain Rain
9:55 PM 55.4 °F 55.4 °F 100% 29.75 in 4.0 mi NE 10.4 mph - N/A Rain Rain
10:15 PM 55.4 °F 55.4 °F 100% 29.75 in 7.0 mi NNE 8.1 mph - N/A Rain Rain
10:35 PM 55.4 °F 55.4 °F 100% 29.74 in 5.0 mi NE 8.1 mph - N/A Rain Light Rain
10:55 PM 55.4 °F 55.4 °F 100% 29.74 in 7.0 mi NNE 8.1 mph - N/A Rain Rain
11:15 PM 55.4 °F 55.4 °F 100% 29.73 in 7.0 mi ENE 11.5 mph - N/A Rain Light Rain
11:35 PM 55.4 °F 55.4 °F 100% 29.72 in 10.0 mi ENE 9.2 mph - N/A   Overcast
11:55 PM 55.4 °F 55.4 °F 100% 29.72 in 10.0 mi NE 10.4 mph - N/A   Overcast